{"data":{"norad_id":47800,"epoch":"2026-05-24T18:13:52.303296Z","epoch_age_seconds":99747,"freshness":"FRESH","line1":"1 47800U 21018P   26144.75963314  .00010394  00000+0  34588-3 0  9993","line2":"2 47800  53.1578 245.2511 0000925  80.6687 279.4419 15.31734788288417","mean_motion":15.31734788,"eccentricity":9.25e-5,"inclination_deg":53.1578,"raan_deg":245.2511,"arg_perigee_deg":80.6687,"mean_anomaly_deg":279.4419,"bstar":0.00034588,"rev_number":28841,"period_min":94.011052780241,"perigee_km":470.00278444067,"apogee_km":471.26980750043,"semimajor_km":6848.7732959705,"source":"CELESTRAK","updated_at":"2026-05-25T13:38:16.599958Z"}}